Dewpoint
64 67 70 74 74 74 74 75 75 75 74 74 74 74 74 73 72 72 73 73 72 72 71 70 70 70 70 70 70 70 70 69 69 69 69 70 69 68 69 70 70 70 70 71 72 72 72 71 71 71 71 70 70 71 71 70 71 71 70 70 70 70 71 70 70 70 70 70 70 69 69 69 69 69 69 68 68 67 67 66 65 61 61 65 67
65 67 70 73 74 74 74 74 74 74 74 74 74 74 73 73 73 73 73 72 71 71 70 70 70 70 70 70 70 69 69 69 69 69 69 69 70 68 69 70 70 70 71 71 71 71 71 71 71 71 71 71 71 71 70 71 70 70 70 70 70 70 70 70 70 70 70 70 70 69 69 69 69 69 69 68 67 67 66 65 65 61 62 66 66
66 68 69 72 74 74 74 74 74 74 74 74 74 73 73 73 73 72 72 71 71 70 70 70 70 70 70 69 69 69 69 69 69 70 69 69 69 70 70 70 70 70 71 71 71 71 71 71 71 71 71 71 71 71 70 70 70 70 70 70 70 70 70 70 70 70 70 70 70 70 69 69 68 68 69 68 67 66 66 66 65 64 62 65 65
67 68 68 73 74 74 74 74 74 74 73 74 73 73 73 73 72 72 71 71 71 70 70 70 70 71 70 69 69 69 69 69 69 69 69 70 70 70 71 71 70 70 71 71 72 71 71 71 71 71 70 71 71 71 71 70 70 70 70 70 70 70 70 70 70 70 71 70 70 67 66 65 66 67 67 68 67 66 65 65 65 65 65 65 65
67 67 69 71 71 73 74 73 73 73 73 73 73 73 73 72 72 72 71 71 70 70 70 70 70 70 69 69 68 68 69 69 69 69 70 70 71 71 71 71 71 71 70 71 71 71 71 71 71 71 70 70 71 71 70 70 70 70 70 70 70 70 70 70 70 70 70 71 68 67 62 63 64 66 67 66 66 66 66 65 63 63 63 64 64
68 67 68 69 69 72 73 73 73 73 73 73 73 72 72 72 71 71 71 71 70 70 70 69 69 69 68 68 68 68 70 70 70 71 72 71 72 71 71 71 71 71 70 70 71 71 71 71 70 70 70 71 71 71 71 70 70 70 70 70 70 70 70 69 69 69 69 70 69 63 57 59 59 61 65 66 65 65 64 64 65 63 63 62 63
69 68 67 66 68 71 73 73 73 73 72 72 72 72 71 71 71 71 70 70 69 69 69 69 69 69 68 68 68 68 70 71 71 71 71 71 71 71 71 71 71 71 70 70 70 71 70 70 70 70 70 70 71 71 71 70 70 70 70 69 69 68 67 67 67 67 69 68 67 57 57 58 58 60 64 64 64 63 63 63 62 63 64 64 64
68 66 66 65 69 72 73 72 72 72 72 71 71 71 71 71 70 70 70 70 69 69 69 69 68 68 68 68 68 68 70 71 71 72 71 71 71 71 71 71 71 71 71 70 70 70 70 70 70 70 70 70 70 70 70 70 70 69 69 68 67 67 66 66 67 67 68 62 57 57 58 58 58 59 63 63 64 64 64 64 65 65 65 66 65
67 65 65 66 70 72 73 72 72 72 71 71 71 70 70 70 70 70 70 69 69 69 69 69 68 68 68 68 68 69 69 70 71 71 71 71 71 72 71 71 71 70 70 71 71 70 70 70 69 70 69 70 70 69 70 70 70 69 67 67 66 66 66 66 65 68 66 56 56 56 56 57 58 59 66 66 66 66 67 66 67 68 68 68 68
66 66 66 70 70 73 72 72 72 71 71 71 70 71 70 70 70 70 70 69 69 69 68 68 68 68 68 68 68 68 69 70 71 72 72 71 71 71 71 71 71 70 70 69 69 69 69 69 69 69 70 70 69 69 70 70 69 68 68 67 67 67 68 68 69 70 57 57 58 61 65 63 60 64 68 67 67 68 68 69 68 68 68 68 67
66 66 67 69 69 72 72 72 72 71 71 71 71 70 70 70 70 70 69 69 69 69 69 68 68 68 68 68 68 68 69 71 71 72 72 72 71 71 70 70 70 70 70 69 68 68 69 70 69 70 70 70 70 70 70 70 69 68 67 67 67 66 68 68 69 52 55 55 58 60 65 68 65 66 68 67 67 67 67 67 67 67 66 66 67
66 68 70 70 72 72 72 72 71 71 71 71 71 70 70 70 70 69 69 69 69 69 69 69 69 69 68 68 68 68 69 70 71 71 71 71 70 70 70 70 70 70 69 69 70 70 70 71 71 70 70 70 70 70 70 69 69 68 67 67 67 68 68 69 66 56 57 56 57 59 58 60 63 65 67 67 67 67 66 67 67 67 66 66 65
66 69 70 70 69 72 72 72 71 71 71 71 71 70 70 70 70 70 69 70 69 69 69 69 69 70 70 69 68 68 69 70 71 70 70 70 70 70 70 70 70 70 69 68 69 70 70 70 70 70 70 70 70 70 70 69 68 68 67 67 67 66 68 68 54 56 57 57 58 58 61 64 65 67 67 68 67 66 66 66 66 66 67 67 66
67 69 70 68 69 72 72 71 71 71 71 71 71 71 70 70 70 70 70 70 70 70 70 70 69 69 69 69 68 69 70 71 71 71 70 70 70 70 69 69 70 69 69 68 69 70 71 70 70 70 70 70 70 69 69 68 67 67 66 67 68 68 68 66 63 58 59 59 61 59 61 64 65 67 66 66 66 66 65 65 66 67 66 65 65
68 70 69 68 69 69 72 71 71 72 71 71 71 71 71 71 71 71 71 70 70 71 71 70 70 70 69 70 70 70 71 70 70 70 70 70 69 69 69 69 70 69 68 68 69 70 70 70 70 70 70 69 69 69 69 68 67 66 66 66 66 66 67 61 55 58 59 59 60 59 60 63 67 66 65 65 65 65 64 65 65 65 65 65 64
69 69 67 68 67 68 69 71 71 72 72 71 71 71 71 71 71 71 71 71 71 71 71 71 71 71 71 71 70 70 70 70 70 70 69 69 69 69 69 70 69 69 68 68 70 70 70 70 70 70 69 69 69 69 68 68 67 66 66 67 66 67 67 69 59 58 59 60 60 61 61 62 67 64 63 63 64 64 64 64 64 64 64 63 63
69 69 68 67 68 67 67 69 70 71 71 71 71 71 71 71 71 71 71 71 71 70 70 71 72 71 71 70 70 70 70 70 70 70 70 69 69 70 70 69 69 69 68 69 70 71 71 70 70 70 69 69 69 68 68 67 67 66 66 66 66 67 68 70 58 60 59 59 59 59 61 60 64 65 63 63 63 63 63 63 64 63 63 63 62
69 69 68 68 68 65 68 67 69 69 70 70 71 71 71 71 71 71 71 71 71 70 71 71 71 71 71 70 70 70 70 70 70 70 70 69 69 69 69 69 69 69 69 69 70 71 71 70 70 70 69 69 69 68 67 67 66 66 65 66 66 67 68 70 59 60 60 61 60 60 61 65 66 64 63 62 62 62 62 62 62 62 61 61 64
68 70 68 68 66 66 67 69 69 68 69 68 69 71 71 71 71 71 71 71 71 71 71 71 71 71 71 70 71 71 71 71 70 70 70 69 69 69 68 68 69 69 69 69 70 71 71 70 70 70 69 69 68 68 67 67 66 65 65 65 67 66 68 66 56 58 60 61 61 60 62 66 65 64 64 64 64 63 63 62 62 62 62 63 63
69 69 69 68 68 67 70 68 68 68 69 69 69 70 71 71 71 71 71 71 71 70 71 71 70 71 71 71 71 72 71 70 71 70 69 69 69 68 68 68 68 69 68 69 70 70 71 70 70 69 69 68 68 68 67 66 65 65 64 66 65 66 65 60 59 59 60 60 61 61 65 65 64 63 63 63 62 62 62 62 61 62 62 62 62
69 69 69 69 70 71 70 70 70 69 68 69 69 70 70 71 71 71 71 72 71 71 71 70 70 70 70 71 72 71 71 71 69 67 69 68 70 69 68 68 68 68 69 70 70 70 70 70 70 69 69 68 68 67 67 66 66 66 65 66 65 65 62 61 61 61 60 61 61 60 65 64 63 63 62 62 62 61 62 62 61 60 61 61 61
68 68 69 70 71 70 70 69 71 70 71 71 69 69 71 70 70 70 69 71 71 71 70 68 69 69 70 70 70 68 69 68 68 68 67 69 69 69 68 68 68 69 70 70 70 70 70 70 69 69 69 68 67 64 66 66 66 65 66 65 64 62 63 62 61 60 61 61 61 62 63 63 62 61 62 62 61 61 61 61 62 61 61 61 60
67 67 68 69 70 70 70 70 70 69 70 70 70 70 70 70 69 69 69 70 70 70 69 68 66 67 67 67 70 71 68 67 68 65 66 68 69 68 68 68 68 69 70 70 70 69 69 70 69 69 68 68 66 63 60 59 61 66 66 65 65 63 63 63 62 62 61 61 61 63 62 62 63 63 62 62 62 61 60 61 61 61 60 60 61
68 70 69 70 69 70 70 71 69 70 70 70 70 71 70 71 70 70 69 68 68 68 69 68 66 66 67 71 73 71 71 72 68 67 68 68 69 68 68 68 68 69 70 69 69 69 69 70 69 69 68 65 65 61 60 59 59 63 65 64 61 62 63 62 59 61 62 61 60 63 62 62 62 61 61 61 61 60 61 61 62 61 60 60 60
68 69 68 68 70 69 70 70 70 70 70 70 70 70 70 71 71 71 71 72 69 69 69 69 70 68 70 70 71 70 71 71 69 67 66 66 67 67 67 66 66 66 69 66 68 68 69 67 67 66 64 64 61 62 61 59 62 62 62 61 62 62 61 62 59 58 61 62 62 63 62 62 62 62 62 62 62 62 62 61 61 61 61 60 62
67 67 68 70 69 70 70 69 70 70 71 71 70 70 72 71 69 71 70 70 70 71 71 71 71 72 70 70 70 70 70 69 69 67 65 65 64 64 63 63 63 63 64 62 62 68 66 64 63 62 63 64 63 63 61 61 61 59 60 63 62 62 61 58 58 59 61 61 61 62 62 61 61 60 60 60 60 61 61 61 60 61 61 61 60
68 67 68 70 69 70 70 70 71 71 70 71 70 70 71 70 70 71 70 70 71 69 71 71 70 69 70 70 70 70 71 71 70 69 66 65 64 62 60 61 62 62 61 61 63 63 63 63 63 63 63 62 61 61 59 60 61 59 60 60 60 59 60 58 58 58 60 61 62 62 61 60 60 61 60 59 59 61 60 59 60 59 59 57 60
68 68 68 69 69 70 70 69 68 71 71 70 70 68 71 70 69 70 69 71 71 70 71 71 70 71 70 70 70 71 70 70 69 70 70 65 64 64 64 60 60 61 60 61 62 63 63 63 64 62 62 61 59 59 58 59 60 61 61 60 60 60 60 58 59 59 59 61 61 62 62 61 61 61 60 60 60 60 60 60 59 61 60 60 60
66 69 69 68 70 68 69 69 69 68 70 71 70 71 70 70 70 71 71 69 69 70 70 71 70 71 70 69 70 70 70 68 69 70 71 68 68 65 65 63 62 61 59 60 62 63 64 63 63 62 63 61 59 59 58 59 62 61 60 58 61 60 60 59 59 56 58 59 61 61 62 61 61 60 58 59 60 58 61 61 59 59 59 59 58
67 68 68 68 69 69 68 69 69 69 69 70 70 68 70 70 69 69 70 69 70 69 68 68 68 70 67 69 70 71 70 70 69 70 70 69 69 67 65 64 63 60 60 61 61 61 62 63 63 63 59 61 59 60 59 59 58 60 60 61 61 61 61 59 58 57 58 60 62 61 63 62 63 64 62 60 59 59 59 60 59 58 59 59 58
67 67 68 67 68 68 67 69 70 69 71 69 69 70 70 70 69 69 69 69 68 69 67 67 66 67 68 70 70 70 70 68 69 69 70 69 68 69 67 65 63 62 61 60 62 62 63 63 63 63 61 60 59 59 58 58 58 58 60 59 61 62 61 60 58 60 58 59 60 60 60 62 62 63 63 63 59 59 59 60 58 59 59 59 59
66 66 66 67 68 68 68 68 68 70 69 69 69 69 70 68 69 70 69 67 70 67 67 67 66 66 68 69 71 70 69 70 69 69 68 68 69 70 68 65 63 63 62 60 60 61 63 63 63 64 63 62 61 61 60 58 58 58 58 62 61 61 59 59 60 60 61 61 60 61 60 60 62 62 62 62 60 59 59 59 59 59 59 59 60
66 67 67 68 68 68 68 67 69 69 68 68 69 69 69 68 69 69 69 68 68 68 66 67 67 68 69 69 69 69 68 68 70 71 68 69 69 69 69 67 65 64 64 62 61 62 62 64 65 64 64 64 63 62 59 61 61 60 60 61 61 60 60 60 62 62 61 61 61 60 61 60 60 63 62 61 60 59 59 59 59 59 60 61 59
67 67 68 69 69 69 68 69 69 70 69 68 69 68 69 69 68 67 67 68 67 66 66 68 68 66 67 69 69 69 69 69 69 70 70 69 68 67 68 70 67 66 65 64 61 62 60 63 63 63 63 63 63 63 61 61 60 60 62 61 60 61 61 60 62 63 62 62 62 62 62 61 61 60 59 62 60 60 59 59 59 60 61 60 60
67 68 68 69 69 69 69 69 69 69 69 69 68 69 69 67 66 67 67 68 67 66 66 67 66 66 66 66 69 69 69 68 69 70 69 68 67 68 67 67 68 67 68 65 64 62 62 59 61 62 64 64 62 63 61 62 61 61 62 62 62 62 63 63 63 62 61 63 63 63 63 61 61 60 60 59 62 61 60 59 60 61 61 60 60
68 68 68 69 69 69 69 69 69 70 70 69 69 70 69 69 67 67 67 68 66 66 66 66 67 65 65 66 68 69 69 69 68 68 69 69 68 68 68 68 68 67 66 69 68 65 62 60 62 62 62 63 63 62 63 62 63 62 63 62 63 63 63 63 63 63 62 62 62 63 62 62 61 58 60 59 58 61 63 62 61 62 61 61 60
69 68 68 68 68 70 69 69 69 69 70 70 69 69 69 68 68 68 67 68 66 66 65 66 67 67 67 65 67 69 69 69 68 68 69 69 68 68 67 68 68 68 67 66 67 66 65 61 62 62 62 63 61 61 63 63 63 63 64 64 63 64 64 64 63 63 63 62 62 62 62 62 61 57 60 59 60 61 64 63 62 62 62 62 62
67 68 68 68 69 69 68 68 69 69 69 69 69 68 69 68 68 67 67 66 67 66 65 66 66 67 67 66 66 67 69 69 69 68 68 68 67 68 68 67 68 69 69 68 68 67 68 63 62 63 62 63 61 61 62 63 63 63 63 64 64 62 63 64 64 64 64 62 63 63 64 63 61 57 61 61 60 60 62 63 63 64 64 65 64
67 68 68 68 68 68 69 69 68 68 68 68 67 68 68 68 68 66 67 67 67 67 67 65 66 67 66 67 66 67 68 69 68 68 68 67 67 67 67 68 68 69 66 66 67 66 66 65 65 64 63 63 62 62 62 62 62 63 62 63 64 64 64 64 65 65 67 64 65 66 63 63 62 60 63 62 64 62 62 62 62 63 64 65 64
67 67 68 68 69 69 69 69 67 67 68 68 67 66 66 64 65 65 65 66 67 66 67 66 67 67 67 67 67 68 68 68 68 68 68 68 67 67 66 67 67 67 68 67 66 65 65 65 65 66 65 64 63 62 62 62 62 63 62 63 64 64 65 64 65 65 65 66 67 65 66 62 62 61 62 63 67 66 63 63 64 65 63 64 65
66 67 67 67 68 66 66 68 67 67 66 65 66 65 64 64 64 63 63 64 66 67 67 68 67 66 67 66 66 69 68 67 67 66 67 67 67 68 67 66 67 67 66 67 66 66 67 66 66 67 66 65 63 62 62 62 61 61 63 63 64 64 65 64 64 66 65 64 68 63 63 62 61 61 62 64 62 63 65 64 63 65 65 64 65
65 66 67 67 66 66 65 65 66 65 65 66 67 66 66 64 64 64 65 68 67 64 65 66 68 68 67 67 67 66 66 67 67 66 67 67 67 67 68 67 67 67 68 68 67 68 66 64 66 66 64 67 63 61 61 62 60 58 61 59 62 65 65 64 64 64 64 64 66 63 62 62 62 61 64 62 62 63 62 62 62 66 64 65 64
66 66 66 66 65 66 66 66 66 65 65 65 65 65 66 66 65 67 67 68 68 67 67 68 68 68 68 67 68 67 67 66 66 67 66 67 67 67 68 68 67 67 67 67 67 67 66 66 65 64 63 64 63 62 63 62 59 59 59 60 60 60 61 63 65 64 63 65 65 63 64 63 63 62 62 62 61 62 60 62 61 62 66 65 65
62 63 63 64 64 64 65 65 64 65 65 67 65 66 67 67 67 67 68 68 66 67 67 68 68 67 67 67 67 66 67 66 66 65 67 66 67 66 68 68 67 66 68 66 66 67 66 66 65 64 65 63 60 60 63 63 59 59 58 57 58 58 56 58 60 62 64 64 63 63 64 62 64 63 62 61 61 61 61 60 62 62 62 65 66
62 62 62 62 63 64 64 64 65 64 65 64 65 66 66 66 66 67 67 67 67 67 67 65 66 67 66 67 67 66 66 66 67 66 65 66 66 67 68 68 67 69 66 67 66 66 66 67 65 65 63 64 61 61 62 63 62 65 60 58 58 56 56 58 60 61 63 63 63 62 62 64 63 63 62 61 61 61 60 60 62 62 63 64 65
61 62 63 64 63 62 63 63 64 65 64 65 66 66 66 65 65 65 65 66 65 64 64 64 64 65 64 66 66 65 65 66 66 65 65 66 67 67 67 67 66 66 68 68 67 67 66 67 66 65 63 64 64 60 62 65 65 66 65 63 63 57 56 61 58 56 61 63 63 62 63 64 64 64 63 61 59 59 59 61 62 63 63 63 66
60 62 62 62 63 64 64 64 63 64 64 65 65 66 65 65 65 65 64 64 64 65 66 66 66 65 66 66 66 66 65 66 66 65 65 66 67 67 66 67 67 66 66 67 67 66 67 66 67 66 65 64 65 61 61 63 64 65 65 65 65 64 62 59 57 60 58 60 63 62 61 63 63 61 61 59 58 59 60 61 61 62 61 63 66
59 60 61 61 62 62 63 64 64 64 65 65 64 65 65 65 65 64 64 64 64 65 65 65 66 66 66 66 66 67 66 65 65 64 65 65 67 68 67 68 67 67 65 65 66 67 67 67 66 66 66 64 65 63 63 63 63 61 64 65 65 64 62 61 61 56 56 55 57 60 62 63 62 63 64 61 59 61 61 62 59 59 62 61 65
58 59 60 60 61 61 61 62 62 63 64 65 65 65 65 65 64 64 64 63 64 64 64 65 64 65 65 65 65 66 66 66 65 64 64 64 65 67 66 65 66 67 65 65 66 67 66 66 66 67 66 66 65 65 64 64 62 61 63 63 62 60 61 61 60 61 61 56 58 59 59 61 62 62 63 63 63 61 62 62 59 58 61 60 61
58 58 58 59 59 59 60 60 61 62 63 65 64 65 65 65 64 65 65 65 64 64 64 64 63 64 64 65 65 64 65 65 67 67 66 64 64 64 66 67 67 66 66 66 65 66 66 66 66 65 66 65 66 66 65 65 63 63 63 63 62 60 62 60 61 59 60 58 55 54 59 59 59 60 63 63 65 59 60 62 61 58 60 59 61
56 57 58 58 58 58 59 59 60 60 61 62 64 64 64 63 63 63 63 63 64 64 63 64 63 64 64 64 64 63 64 64 66 67 65 64 64 64 66 67 66 65 65 65 66 67 66 67 66 66 65 65 66 66 66 65 64 63 65 63 60 60 60 58 59 59 59 58 58 57 57 55 57 58 62 62 62 59 59 61 60 59 60 59 61